Pagina principale
METAR-TAF:

METAR-TAF

Aeroporti :

Plymouth Municipal Airport

Plymouth, Massachusetts, Stati Uniti

latitudine: 41-54-31N, longitudine: 070-43-41W, altezza: 45 m

Osservazione

Il bollettino è stato emesso 13 minuti fa, alle 02:52 UTC
Vento 3 kt da sud
Temperature 12°C
Umidità 94%
Pressione 1020 hPa
Visibilità: 8.0 km
Nuvoloso ad un'altezza di 300 ft
foschia

METAR: KPYM 220252Z AUTO 17003KT 5SM BR BKN003 12/11 A3013 RMK AO2 SLP204 T01170106 53001

Ora: 23:05 (03:05 UTC)


TAF: mancante

Osservazioni e previsioni meteorologiche di più di 4000 aeroporti (messaggi METAR e TAF).

Le stazioni disponibili sono rappresentate dai dischi gialli e rossi sulla carta.

Puntare il mouse per vedere il nome della stazione.

Clicca sopra per visualizzare le osservazioni e previsioni meteorologiche.

Per cambiare la mappa : fare clic sui pulsanti verdi con una croce nera per ingrandire, il pulsante verde con un trattino per diminuire, o sulla freccia verde per le mappe adiacenti.


METAR-TAF: